Location: Elstree
(51.6403°N, 0.2969°W)
Time: 01:12:46
(UTC+00:00)

Cosmos 1980 Rocket - Pass Details

Date: 03 March 2021
Orbit: 828 x 851 km, 71.0° (Epoch: 11 April)

Event Time Altitude Azimuth Distance (km) Brightness Sun altitude
Rises 18:53:10 0° 237° (WSW) 3,395 6.3 -11.3°
Reaches altitude 10° 18:55:47 10° 246° (WSW) 2,467 5.7 -11.7°
Maximum altitude 19:01:02 38° 313° (NW) 1,285 3.7 -12.5°
Drops below altitude 10° 19:06:20 10° 21° (NNE) 2,489 4.5 -13.4°
Sets 19:08:59 0° 30° (NNE) 3,429 5.1 -13.8°
